Regional Weather Roundup
Issued by NWS Binghamton, NY

Home | Current Version | Previous Version | Text Only | Print | Product List | Glossary On
Versions: 1 2 3 4 5 6 7 8 9 10 11 12 13 14 15 16 17 18 19 20 21 22 23 24 25 26 27 28 29 30 31 32 33 34 35 36 37 38 39 40 41 42 43 44 45 46 47 48 49 50
000
ASUS41 KBGM 240010
RWRBGM

REGIONAL WEATHER ROUNDUP
NATIONAL WEATHER SERVICE BINGHAMTON NY
800 PM EDT SUN APR 23 2017

Note: "fair" indicates few or no clouds below 12,000 feet with no
significant weather and/or obstructions to visibility.

* = Station(s) that does not report precipitation, such as rain,
snow, etc, also no thunder or fog.

NYZ009-015>018-022>025-036-037-044>046-055>057-062-240100
...Central New York...

CITY           SKY/WX    TMP DP  RH WIND       PRES   REMARKS
Binghamton     CLOUDY    60  23  24 S3        30.04S
Dansville      CLOUDY    60  33  36 NW7       30.05R
Elmira         CLOUDY    56  37  49 NE3       30.01S
Seneca Falls   CLEAR     63  43  48 N7        30.05R
Ithaca         CLOUDY    60  36  40 N7        30.05R
Hamilton       CLEAR     55  36  47 NW3       30.06R
Monticello     CLOUDY    61  28  29 S5        30.06S
Norwich        CLEAR     57  28  33 CALM      30.05R
Penn Yan       CLOUDY    62  35  36 MISG      30.05R
Rome           CLEAR     58  32  37 NW5       30.06R
Sidney         CLEAR     55  30  38 CALM      30.04S
Syracuse       PTCLDY    61  31  32 W6        30.04R
$$

PAZ038>040-043-044-047-048-072-240100
...Northeast Pennsylvania...

CITY           SKY/WX    TMP DP  RH WIND       PRES   REMARKS
Scranton       PTCLDY    64  36  35 S6        30.04R
$$
&&
KEY
WCI = Wind Chill Index
VSB = Visibility
HX  = Heat Index
$$



USA.gov is the U.S. government's official web portal to all federal, state and local government web resources and services.